Time,TemperatureF,DewpointF,PressureIn,WindDirection,WindDirectionDegrees,WindSpeedMPH,WindSpeedGustMPH,Humidity,HourlyPrecipIn,Conditions,Clouds,dailyrainin,SoftwareType,DateUTC
2013-09-18 00:00:00,48.6,47.2,30.17,West,270,2.2,-999.0,95,-99.99,,,0.00,Acu-Link.com,2013-09-18 04:00:00,
2013-09-18 00:15:00,48.6,47.2,30.16,NNW,337,4.7,-999.0,95,-99.99,,,0.00,Acu-Link.com,2013-09-18 04:15:00,
2013-09-18 00:31:00,48.4,47.0,30.16,SSW,202,2.2,-999.0,95,-99.99,,,0.00,Acu-Link.com,2013-09-18 04:31:00,
2013-09-18 00:46:00,48.4,47.0,30.17,SSE,157,2.2,-999.0,95,-99.99,,,0.00,Acu-Link.com,2013-09-18 04:46:00,
2013-09-18 01:01:00,48.0,46.6,30.16,West,270,1.7,-999.0,95,-99.99,,,0.00,Acu-Link.com,2013-09-18 05:01:00,
2013-09-18 01:16:00,47.8,46.4,30.16,West,270,3.2,-999.0,95,-99.99,,,0.00,Acu-Link.com,2013-09-18 05:16:00,
2013-09-18 01:31:00,47.8,46.4,30.16,WSW,247,2.2,-999.0,95,-99.99,,,0.00,Acu-Link.com,2013-09-18 05:31:00,
2013-09-18 01:46:00,48.0,46.9,30.16,SW,225,2.7,-999.0,96,-99.99,,,0.00,Acu-Link.com,2013-09-18 05:46:00,
2013-09-18 02:01:00,48.6,47.5,30.16,WSW,247,4.7,-999.0,96,-99.99,,,0.00,Acu-Link.com,2013-09-18 06:01:00,
2013-09-18 02:16:00,48.9,47.8,30.16,SW,225,4.2,-999.0,96,-99.99,,,0.00,Acu-Link.com,2013-09-18 06:16:00,
2013-09-18 02:31:00,49.1,47.7,30.16,West,270,3.7,-999.0,95,-99.99,,,0.00,Acu-Link.com,2013-09-18 06:31:00,
2013-09-18 02:47:00,49.3,47.6,30.15,WSW,247,3.7,-999.0,94,-99.99,,,0.00,Acu-Link.com,2013-09-18 06:47:00,
2013-09-18 03:02:00,49.3,47.6,30.15,WSW,247,4.2,-999.0,94,-99.99,,,0.00,Acu-Link.com,2013-09-18 07:02:00,
2013-09-18 03:17:00,49.3,47.6,30.14,West,270,3.7,-999.0,94,-99.99,,,0.00,Acu-Link.com,2013-09-18 07:17:00,
2013-09-18 03:32:00,49.3,47.6,30.15,SSW,202,3.2,-999.0,94,-99.99,,,0.00,Acu-Link.com,2013-09-18 07:32:00,
2013-09-18 03:47:00,49.3,47.6,30.14,SW,225,3.2,-999.0,94,-99.99,,,0.00,Acu-Link.com,2013-09-18 07:47:00,
2013-09-18 04:02:00,49.3,47.6,30.14,WSW,247,2.2,-999.0,94,-99.99,,,0.00,Acu-Link.com,2013-09-18 08:02:00,
2013-09-18 04:18:00,49.3,47.6,30.13,SW,225,4.7,-999.0,94,-99.99,,,0.00,Acu-Link.com,2013-09-18 08:18:00,
2013-09-18 04:33:00,49.3,47.6,30.13,SW,225,2.2,-999.0,94,-99.99,,,0.00,Acu-Link.com,2013-09-18 08:33:00,
2013-09-18 04:48:00,49.1,47.4,30.13,WSW,247,4.2,-999.0,94,-99.99,,,0.00,Acu-Link.com,2013-09-18 08:48:00,
2013-09-18 05:03:00,48.7,47.1,30.13,WSW,247,3.2,-999.0,94,-99.99,,,0.00,Acu-Link.com,2013-09-18 09:03:00,
2013-09-18 05:18:00,48.6,47.0,30.13,SW,225,2.2,-999.0,94,-99.99,,,0.00,Acu-Link.com,2013-09-18 09:18:00,
2013-09-18 05:34:00,47.8,46.2,30.13,WSW,247,2.7,-999.0,94,-99.99,,,0.00,Acu-Link.com,2013-09-18 09:34:00,
2013-09-18 05:49:00,47.1,45.7,30.14,SE,135,0.0,-999.0,95,-99.99,,,0.00,Acu-Link.com,2013-09-18 09:49:00,
2013-09-18 06:04:00,46.6,45.2,30.14,SW,225,0.0,-999.0,95,-99.99,,,0.00,Acu-Link.com,2013-09-18 10:04:00,
2013-09-18 06:19:00,46.0,44.9,30.15,SSE,157,0.0,-999.0,96,-99.99,,,0.00,Acu-Link.com,2013-09-18 10:19:00,
2013-09-18 06:34:00,45.3,44.2,30.14,WSW,247,1.7,-999.0,96,-99.99,,,0.00,Acu-Link.com,2013-09-18 10:34:00,
2013-09-18 06:49:00,45.7,44.9,30.15,SW,225,2.2,-999.0,97,-99.99,,,0.00,Acu-Link.com,2013-09-18 10:49:00,
2013-09-18 07:04:00,45.9,45.1,30.14,SW,225,2.7,-999.0,97,-99.99,,,0.00,Acu-Link.com,2013-09-18 11:04:00,
2013-09-18 07:19:00,45.9,45.1,30.15,SW,225,2.2,-999.0,97,-99.99,,,0.00,Acu-Link.com,2013-09-18 11:19:00,
2013-09-18 07:35:00,46.6,45.8,30.15,West,270,1.7,-999.0,97,-99.99,,,0.00,Acu-Link.com,2013-09-18 11:35:00,
2013-09-18 07:50:00,47.3,46.5,30.15,WSW,247,0.0,-999.0,97,-99.99,,,0.00,Acu-Link.com,2013-09-18 11:50:00,
2013-09-18 08:05:00,47.8,47.0,30.15,West,270,2.2,-999.0,97,-99.99,,,0.00,Acu-Link.com,2013-09-18 12:05:00,
2013-09-18 08:20:00,48.4,47.6,30.16,SW,225,3.7,-999.0,97,-99.99,,,0.00,Acu-Link.com,2013-09-18 12:20:00,
2013-09-18 08:35:00,49.1,48.0,30.16,SSW,202,1.7,-999.0,96,-99.99,,,0.00,Acu-Link.com,2013-09-18 12:35:00,
2013-09-18 08:50:00,49.8,48.7,30.16,SW,225,2.7,-999.0,96,-99.99,,,0.00,Acu-Link.com,2013-09-18 12:50:00,
2013-09-18 09:05:00,50.0,48.6,30.17,SW,225,4.2,-999.0,95,-99.99,,,0.00,Acu-Link.com,2013-09-18 13:05:00,
2013-09-18 09:20:00,50.9,49.5,30.17,West,270,3.2,-999.0,95,-99.99,,,0.00,Acu-Link.com,2013-09-18 13:20:00,
2013-09-18 09:36:00,51.1,49.4,30.17,WSW,247,1.7,-999.0,94,-99.99,,,0.00,Acu-Link.com,2013-09-18 13:36:00,
2013-09-18 09:51:00,52.3,50.6,30.16,WSW,247,3.2,-999.0,94,-99.99,,,0.00,Acu-Link.com,2013-09-18 13:51:00,
2013-09-18 10:06:00,52.0,50.3,30.17,SSE,157,2.7,-999.0,94,-99.99,,,0.00,Acu-Link.com,2013-09-18 14:06:00,
2013-09-18 10:21:00,54.0,51.7,30.16,WSW,247,2.2,-999.0,92,-99.99,,,0.00,Acu-Link.com,2013-09-18 14:21:00,
2013-09-18 10:36:00,54.9,52.0,30.16,WSW,247,6.3,-999.0,90,-99.99,,,0.00,Acu-Link.com,2013-09-18 14:36:00,
2013-09-18 10:51:00,55.0,52.1,30.17,WSW,247,4.7,-999.0,90,-99.99,,,0.00,Acu-Link.com,2013-09-18 14:51:00,
2013-09-18 11:06:00,56.1,52.6,30.16,SW,225,3.2,-999.0,88,-99.99,,,0.00,Acu-Link.com,2013-09-18 15:06:00,
2013-09-18 11:22:00,56.5,52.7,30.16,SW,225,4.2,-999.0,87,-99.99,,,0.00,Acu-Link.com,2013-09-18 15:22:00,
2013-09-18 11:37:00,56.8,52.7,30.16,SW,225,3.2,-999.0,86,-99.99,,,0.00,Acu-Link.com,2013-09-18 15:37:00,
2013-09-18 11:52:00,56.1,52.6,30.15,ESE,112,3.7,-999.0,88,-99.99,,,0.00,Acu-Link.com,2013-09-18 15:52:00,
2013-09-18 12:07:00,56.8,53.3,30.14,SW,225,1.7,-999.0,88,-99.99,,,0.00,Acu-Link.com,2013-09-18 16:07:00,
2013-09-18 12:22:00,58.1,53.6,30.15,WSW,247,2.7,-999.0,85,-99.99,,,0.00,Acu-Link.com,2013-09-18 16:22:00,
2013-09-18 12:37:00,58.6,53.8,30.14,SW,225,3.2,-999.0,84,-99.99,,,0.00,Acu-Link.com,2013-09-18 16:37:00,
2013-09-18 12:52:00,59.4,54.2,30.14,SSE,157,2.7,-999.0,83,-99.99,,,0.00,Acu-Link.com,2013-09-18 16:52:00,
2013-09-18 13:07:00,58.1,53.3,30.13,ESE,112,1.1,-999.0,84,-99.99,,,0.00,Acu-Link.com,2013-09-18 17:07:00,
2013-09-18 13:22:00,58.6,54.1,30.13,WSW,247,1.1,-999.0,85,-99.99,,,0.00,Acu-Link.com,2013-09-18 17:22:00,
2013-09-18 13:38:00,61.5,55.6,30.12,WSW,247,0.0,-999.0,81,-99.99,,,0.00,Acu-Link.com,2013-09-18 17:38:00,
2013-09-18 13:53:00,61.5,55.3,30.11,NW,315,4.2,-999.0,80,-99.99,,,0.00,Acu-Link.com,2013-09-18 17:53:00,
2013-09-18 14:08:00,61.0,55.1,30.11,WSW,247,4.7,-999.0,81,-99.99,,,0.00,Acu-Link.com,2013-09-18 18:08:00,
2013-09-18 14:23:00,63.3,56.3,30.10,SW,225,3.2,-999.0,78,-99.99,,,0.00,Acu-Link.com,2013-09-18 18:23:00,
2013-09-18 14:38:00,63.0,56.7,30.09,West,270,5.3,-999.0,80,-99.99,,,0.00,Acu-Link.com,2013-09-18 18:38:00,
2013-09-18 14:54:00,64.2,58.2,30.09,SW,225,1.1,-999.0,81,-99.99,,,0.00,Acu-Link.com,2013-09-18 18:54:00,
2013-09-18 15:09:00,64.0,57.0,30.08,SE,135,1.7,-999.0,78,-99.99,,,0.00,Acu-Link.com,2013-09-18 19:09:00,
2013-09-18 15:39:00,64.6,57.9,30.07,West,270,1.1,-999.0,79,-99.99,,,0.00,Acu-Link.com,2013-09-18 19:39:00,
2013-09-18 15:54:00,66.7,58.1,30.07,SW,225,3.2,-999.0,74,-99.99,,,0.00,Acu-Link.com,2013-09-18 19:54:00,
2013-09-18 16:10:00,66.9,58.3,30.06,WSW,247,2.2,-999.0,74,-99.99,,,0.00,Acu-Link.com,2013-09-18 20:10:00,
2013-09-18 16:25:00,66.6,58.4,30.06,WSW,247,4.2,-999.0,75,-99.99,,,0.00,Acu-Link.com,2013-09-18 20:25:00,
2013-09-18 16:40:00,62.4,57.5,30.06,NNW,337,1.7,-999.0,84,-99.99,,,0.00,Acu-Link.com,2013-09-18 20:40:00,
2013-09-18 16:55:00,61.9,57.7,30.05,WSW,247,5.3,-999.0,86,-99.99,,,0.00,Acu-Link.com,2013-09-18 20:55:00,
2013-09-18 17:25:00,59.7,56.5,30.06,SSW,202,2.7,-999.0,89,-99.99,,,0.00,Acu-Link.com,2013-09-18 21:25:00,
2013-09-18 17:40:00,59.7,56.5,30.05,SW,225,3.7,-999.0,89,-99.99,,,0.00,Acu-Link.com,2013-09-18 21:40:00,
2013-09-18 17:55:00,59.2,56.3,30.05,SW,225,4.2,-999.0,90,-99.99,,,0.00,Acu-Link.com,2013-09-18 21:55:00,
2013-09-18 18:10:00,59.0,56.1,30.06,ENE,67,3.2,-999.0,90,-99.99,,,0.00,Acu-Link.com,2013-09-18 22:10:00,
2013-09-18 18:26:00,58.5,55.9,30.05,WSW,247,3.2,-999.0,91,-99.99,,,0.00,Acu-Link.com,2013-09-18 22:26:00,
2013-09-18 18:41:00,57.9,55.3,30.05,SSW,202,1.7,-999.0,91,-99.99,,,0.00,Acu-Link.com,2013-09-18 22:41:00,
2013-09-18 19:11:00,57.6,55.0,30.05,SW,225,3.7,-999.0,91,-99.99,,,0.00,Acu-Link.com,2013-09-18 23:11:00,
2013-09-18 19:26:00,57.2,54.9,30.04,WSW,247,1.7,-999.0,92,-99.99,,,0.00,Acu-Link.com,2013-09-18 23:26:00,
2013-09-18 19:41:00,56.8,54.5,30.05,SW,225,2.2,-999.0,92,-99.99,,,0.00,Acu-Link.com,2013-09-18 23:41:00,
2013-09-18 19:56:00,56.5,54.5,30.05,WSW,247,2.7,-999.0,93,-99.99,,,0.00,Acu-Link.com,2013-09-18 23:56:00,
2013-09-18 20:11:00,56.3,54.3,30.05,WSW,247,1.7,-999.0,93,-99.99,,,0.00,Acu-Link.com,2013-09-19 00:11:00,
2013-09-18 20:26:00,56.3,54.3,30.06,WSW,247,0.0,-999.0,93,-99.99,,,0.00,Acu-Link.com,2013-09-19 00:26:00,
2013-09-18 20:42:00,56.3,54.3,30.05,WSW,247,2.2,-999.0,93,-99.99,,,0.00,Acu-Link.com,2013-09-19 00:42:00,
2013-09-18 20:57:00,56.1,54.1,30.06,WSW,247,0.0,-999.0,93,-99.99,,,0.00,Acu-Link.com,2013-09-19 00:57:00,
2013-09-18 21:12:00,55.8,53.8,30.06,WSW,247,1.7,-999.0,93,-99.99,,,0.00,Acu-Link.com,2013-09-19 01:12:00,
2013-09-18 21:27:00,55.8,53.8,30.06,WSW,247,1.7,-999.0,93,-99.99,,,0.00,Acu-Link.com,2013-09-19 01:27:00,
2013-09-18 21:42:00,55.8,53.8,30.06,SSW,202,0.0,-999.0,93,-99.99,,,0.00,Acu-Link.com,2013-09-19 01:42:00,
2013-09-18 21:57:00,55.8,53.8,30.06,SW,225,0.0,-999.0,93,-99.99,,,0.00,Acu-Link.com,2013-09-19 01:57:00,
2013-09-18 22:12:00,55.8,53.8,30.06,NE,45,0.0,-999.0,93,-99.99,,,0.00,Acu-Link.com,2013-09-19 02:12:00,
2013-09-18 22:42:00,55.9,53.9,30.06,ESE,112,1.7,-999.0,93,-99.99,,,0.00,Acu-Link.com,2013-09-19 02:42:00,
2013-09-18 22:58:00,55.9,53.9,30.06,South,180,1.7,-999.0,93,-99.99,,,0.00,Acu-Link.com,2013-09-19 02:58:00,
2013-09-18 23:14:00,55.9,53.9,30.05,West,270,2.7,-999.0,93,-99.99,,,0.00,Acu-Link.com,2013-09-19 03:14:00,
2013-09-18 23:30:00,55.9,53.9,30.05,SW,225,2.2,-999.0,93,-99.99,,,0.00,Acu-Link.com,2013-09-19 03:30:00,
2013-09-18 23:45:00,55.8,53.8,30.05,WSW,247,2.2,-999.0,93,-99.99,,,0.00,Acu-Link.com,2013-09-19 03:45:00,